Theta_e
345 343 343 339 338 334 333 337 337 337 334 330 329 330 332 334 334 330 331 332 336 344 344 343 342 341 340 327 322 326 331 332 331 328 330 333 338 342 343 340 334 335 335
346 344 344 341 337 333 337 339 338 334 332 330 330 336 341 339 341 339 333 334 343 344 344 343 338 324 325 323 327 329 333 334 328 327 334 341 341 343 343 342 331 336 334
346 345 345 340 334 332 334 339 338 335 333 331 329 337 342 340 338 339 344 344 341 334 332 328 321 320 322 327 331 342 343 344 344 344 340 333 344 342 337 331 333 336 339
346 345 342 338 335 337 339 339 338 336 334 332 333 342 337 338 339 339 340 331 329 324 322 321 326 322 331 326 340 342 344 345 345 346 346 344 328 322 323 323 334 336 336
346 345 345 341 335 340 339 338 336 336 333 333 339 339 339 339 340 335 330 325 322 321 342 335 340 336 335 332 344 343 343 344 345 347 347 345 339 330 332 324 324 326 324
346 346 346 344 341 339 335 336 335 334 330 339 338 340 339 337 339 343 335 322 322 323 343 330 325 329 339 332 341 340 341 340 344 343 344 342 341 328 341 332 325 324 335
348 346 347 345 341 336 329 329 332 330 338 340 342 333 331 330 331 337 337 325 327 325 328 336 334 327 324 324 331 341 345 342 344 344 345 343 324 328 329 333 333 327 331
348 346 346 346 342 336 331 329 332 339 341 342 335 329 329 332 335 334 338 334 329 327 326 334 339 339 331 331 329 343 344 345 343 341 341 342 330 324 331 331 333 330 327
346 346 345 345 342 337 332 330 337 341 342 338 330 330 331 332 340 338 335 335 334 331 331 333 335 339 340 331 332 335 343 341 347 343 344 344 331 325 325 323 327 331 337
349 346 346 345 342 337 332 330 337 341 341 335 331 331 343 347 347 347 341 336 334 335 334 332 331 330 334 336 333 338 343 345 344 344 345 345 340 325 325 328 325 324 323
349 346 345 345 344 342 336 331 332 333 336 336 334 340 347 349 348 347 341 340 340 338 339 342 336 333 331 335 338 338 345 342 343 348 347 345 339 335 325 323 327 330 329
351 348 346 345 345 345 343 339 333 331 330 329 330 333 346 349 348 346 344 345 347 345 346 346 343 333 339 333 343 344 339 344 347 348 347 345 345 340 335 326 323 324 327
349 349 348 348 348 346 344 344 343 340 333 330 330 336 345 350 348 347 347 346 347 348 346 347 344 347 347 347 346 345 346 344 345 345 347 347 346 342 339 335 329 323 323
348 349 349 349 347 348 344 350 347 346 341 343 342 343 342 344 349 345 346 345 345 347 344 337 348 347 347 348 346 344 342 342 344 345 348 346 346 340 339 341 338 334 330
354 352 347 350 352 350 347 350 352 349 346 347 347 347 347 346 342 346 346 346 347 344 345 342 344 346 345 347 348 339 337 335 343 344 346 347 345 341 342 342 341 340 339
353 354 353 349 353 351 352 352 353 349 348 348 347 348 347 349 349 343 346 347 346 347 347 346 344 341 341 344 348 344 343 330 335 342 344 346 346 346 343 345 343 342 341
349 348 353 346 352 350 350 350 351 349 348 349 348 346 345 347 348 348 345 347 348 345 345 344 345 345 343 344 343 344 346 339 333 332 344 343 345 344 343 345 347 344 342
349 350 351 344 344 344 346 349 347 346 348 347 347 349 350 349 346 347 348 346 342 346 348 348 348 346 344 346 345 348 346 347 344 342 332 336 342 342 343 342 347 348 344
349 350 351 352 352 351 340 344 342 344 349 349 349 349 349 350 350 348 349 348 349 345 347 346 346 346 346 348 346 343 338 345 345 346 342 340 340 341 340 345 347 347 348
349 351 353 353 353 353 351 351 347 348 349 349 348 347 346 347 351 350 349 349 349 348 347 346 344 343 345 346 345 345 339 344 345 344 344 345 342 342 343 343 345 344 345
350 352 352 354 353 354 352 353 350 350 350 351 351 352 344 344 347 349 346 346 346 347 347 345 344 343 341 340 344 344 341 340 340 343 343 341 345 343 342 344 344 344 344
350 353 351 352 353 353 352 353 352 350 348 348 350 348 350 347 338 339 340 340 343 343 341 341 339 344 344 345 342 344 344 344 339 341 344 342 343 344 346 345 345 343 343
353 354 354 354 353 355 355 353 352 352 349 350 351 353 351 348 344 342 339 344 338 334 338 344 342 339 340 337 340 342 344 343 342 337 344 344 347 348 347 347 346 345 344
354 355 355 354 354 355 355 350 352 354 355 353 352 352 351 350 345 341 341 340 339 340 335 336 341 345 340 339 340 339 339 342 344 344 343 340 337 342 341 348 348 347 345
353 354 355 355 354 350 354 349 356 358 355 355 352 350 349 349 340 337 330 331 335 334 333 332 332 334 340 342 341 337 341 340 341 343 344 339 340 338 340 344 338 340 347
352 353 355 355 355 351 344 346 349 351 352 352 355 351 334 336 333 326 323 328 328 329 329 328 330 331 334 335 336 336 337 339 341 342 343 341 340 335 336 340 338 347 348
Wind_Speed
22 22 23 23 22 24 26 26 27 28 27 27 26 24 21 20 17 16 15 15 14 13 13 15 14 11 10 9 12 13 14 14 12 12 14 15 16 17 16 13 10 13 13
23 24 23 23 23 23 23 23 25 26 24 22 22 20 19 18 18 16 16 15 15 14 14 13 11 11 12 16 18 18 17 18 18 17 13 13 14 13 13 10 7 12 12
21 22 22 23 23 23 22 21 22 22 20 18 18 17 17 16 16 15 15 14 12 11 11 11 11 12 14 17 20 21 20 22 21 19 15 10 12 12 9 7 10 12 13
22 23 23 22 22 22 19 20 21 20 18 15 14 15 16 16 15 15 13 12 10 11 13 14 15 16 18 19 22 19 17 15 13 9 12 8 7 8 9 9 10 12 10
22 23 24 22 22 21 19 19 19 18 16 14 15 16 15 14 13 13 12 11 11 13 14 14 13 13 16 20 20 19 17 15 10 8 10 6 3 6 9 9 9 9 10
21 19 22 22 21 20 19 18 17 17 14 13 14 16 15 14 13 12 12 11 11 14 13 11 12 13 14 18 17 16 17 16 11 8 6 4 2 2 6 9 9 9 11
15 18 20 21 22 20 19 19 18 16 13 13 14 14 13 12 12 10 10 11 12 12 11 12 11 11 12 13 17 17 13 9 12 7 2 1 2 2 5 7 8 8 8
14 19 20 20 22 21 17 18 16 14 12 14 14 13 14 12 12 10 10 10 10 10 10 8 8 8 9 10 12 14 15 12 10 7 3 2 5 1 3 6 7 7 8
16 19 19 19 21 19 17 17 15 14 14 14 12 12 11 11 13 10 11 9 8 6 5 5 5 4 5 7 8 11 10 13 9 8 4 2 5 3 1 4 6 7 7
10 16 18 18 20 20 17 16 14 14 13 11 11 9 9 9 10 11 10 10 9 7 5 4 2 1 2 5 7 7 9 8 10 7 6 5 5 4 2 3 5 6 8
13 12 16 18 18 18 18 16 14 13 12 11 10 9 6 5 5 9 12 11 9 9 7 8 5 2 1 3 5 4 5 5 9 5 11 9 4 6 4 4 5 6 7
14 10 13 17 17 17 16 14 13 13 11 9 8 5 5 4 1 3 10 10 8 10 7 9 7 1 1 5 2 2 6 6 6 9 12 8 5 7 7 4 5 6 7
16 14 10 13 14 13 12 10 9 10 11 10 7 8 2 2 1 5 6 7 7 7 5 5 5 4 3 5 6 6 9 11 8 8 14 10 8 8 7 6 5 6 8
17 18 15 16 17 14 12 10 8 6 4 1 2 1 4 6 5 4 8 9 8 9 9 8 6 10 10 11 16 18 15 14 14 10 17 15 12 11 10 8 6 6 8
20 16 18 16 17 14 10 6 3 6 1 2 5 6 6 4 5 4 7 7 10 13 11 11 6 12 15 17 18 16 20 19 18 13 12 16 14 12 12 11 9 9 9
19 18 16 14 15 15 11 10 8 7 3 8 8 8 9 12 10 9 11 10 9 9 15 13 17 20 15 16 16 16 16 16 24 20 15 17 18 14 15 12 12 13 12
17 16 15 15 19 21 22 20 20 16 10 8 7 10 11 14 11 13 13 17 13 12 14 17 18 18 16 18 16 18 16 17 16 24 22 18 19 21 19 17 15 14 14
19 18 16 15 21 18 23 20 18 17 10 6 6 9 8 12 18 17 18 14 13 11 16 16 18 19 19 20 19 18 22 18 16 14 21 26 25 26 24 21 19 18 18
22 20 18 12 10 8 15 17 12 18 14 13 12 8 6 10 13 16 20 20 16 16 20 18 18 19 19 22 21 24 30 24 23 20 22 23 24 26 25 24 22 22 22
21 21 18 17 15 11 8 7 12 10 8 5 4 10 12 13 11 19 23 24 24 24 22 22 24 23 24 21 20 23 19 28 21 24 26 24 27 30 31 27 28 28 28
21 20 24 22 20 16 13 11 9 7 5 5 8 7 7 6 9 16 18 18 19 19 21 23 25 26 23 22 26 26 30 30 30 32 34 28 27 27 30 32 31 30 29
23 21 23 23 20 17 16 12 9 7 6 6 7 6 5 6 10 12 15 17 19 20 21 20 21 23 22 22 21 27 30 30 31 26 23 28 28 32 33 31 31 31 31
25 24 22 21 18 16 13 10 11 9 9 7 5 6 6 7 9 13 17 18 19 22 20 19 20 21 22 21 21 21 14 14 27 33 24 26 22 23 32 38 35 35 35
28 23 21 20 19 16 14 16 13 7 8 4 4 5 6 7 9 12 13 18 22 23 21 21 20 20 22 25 24 24 25 28 33 34 37 35 32 27 25 28 38 41 34
28 26 23 21 20 18 17 17 16 15 14 9 9 8 7 9 13 15 23 18 16 18 23 26 27 26 23 23 26 28 26 27 29 32 39 36 32 34 37 24 27 51 44
29 28 27 23 23 21 20 18 19 16 16 17 14 13 13 14 15 20 20 19 22 24 26 24 23 23 24 24 24 25 27 28 28 31 34 41 43 44 39 39 29 25 33
Wind_Direction
129 123 120 117 115 115 115 115 117 117 116 110 103 101 100 100 102 108 107 103 100 101 111 114 116 115 119 110 106 109 109 109 111 117 117 116 112 104 99 90 99 103 103
133 130 125 123 121 120 117 117 119 119 115 104 93 90 93 96 98 102 105 106 103 103 113 113 112 109 113 110 107 113 113 111 106 98 101 103 111 107 107 118 87 106 103
132 127 128 128 126 124 124 122 125 123 117 107 93 90 93 94 95 97 104 105 105 104 111 108 108 110 110 114 114 113 109 107 104 97 89 97 115 115 114 116 111 110 108
134 133 129 131 133 127 127 129 126 127 120 105 91 94 95 96 95 95 96 96 102 105 107 107 107 110 111 115 115 108 101 97 104 112 102 80 109 113 109 121 119 116 110
134 135 131 137 140 128 127 129 126 128 120 104 99 101 95 92 96 95 92 91 103 113 109 104 108 111 117 126 120 108 95 88 89 119 132 112 42 113 109 112 122 119 113
130 136 135 139 139 128 129 131 130 124 123 114 110 106 99 90 88 91 85 88 102 116 111 109 107 107 117 129 129 115 106 99 104 118 144 103 332 124 131 110 117 119 115
137 144 141 140 142 139 132 126 130 132 126 119 110 103 94 80 83 89 88 93 100 111 118 112 104 103 112 125 133 126 123 112 126 143 33 32 354 151 143 133 128 131 131
146 145 145 145 150 147 138 137 136 132 131 123 113 97 81 71 69 75 78 81 92 108 120 109 98 94 108 115 133 142 133 126 149 170 153 54 30 63 154 152 149 143 140
136 149 148 147 150 152 147 148 144 137 136 128 115 103 88 81 70 68 61 59 65 87 104 119 116 95 99 118 127 158 158 140 138 192 244 272 3 358 180 169 168 166 162
144 151 152 152 154 159 159 159 153 143 142 136 123 113 85 66 61 67 46 44 36 34 36 20 357 144 95 113 130 134 152 167 167 213 212 230 353 358 280 206 192 181 179
130 142 153 158 160 167 170 170 171 161 154 143 133 116 80 46 53 42 35 32 34 29 28 23 353 311 231 119 129 153 149 173 176 222 231 235 335 350 307 241 213 207 195
153 141 150 160 167 169 177 183 186 187 181 165 153 137 69 355 306 349 351 359 11 10 16 10 9 340 88 177 285 264 225 203 257 291 211 224 295 317 313 274 240 218 219
155 159 156 157 166 166 163 181 192 195 205 213 207 169 151 319 300 347 335 314 319 316 326 324 357 345 300 257 289 222 241 249 294 296 210 242 278 288 294 285 255 241 231
164 155 149 150 154 131 129 128 116 131 137 102 176 67 282 234 217 255 283 289 306 298 311 293 269 280 290 281 277 261 246 236 256 300 244 257 272 278 271 271 264 254 244
162 150 151 165 166 145 152 155 205 179 258 29 305 313 328 326 290 250 284 297 318 275 286 285 293 273 279 281 295 265 256 237 233 253 264 259 275 264 269 259 261 261 261
166 167 165 187 165 164 183 196 192 197 215 260 274 299 300 305 313 282 252 254 265 284 282 294 298 305 260 275 283 288 288 264 236 237 243 261 264 268 260 262 251 256 263
176 178 183 190 186 180 194 201 187 185 193 220 248 272 285 299 307 317 311 264 268 280 293 282 290 299 299 303 299 280 294 277 268 242 231 254 263 268 260 258 257 258 249
181 190 204 198 201 206 203 208 203 199 191 226 234 291 301 292 310 310 315 316 275 247 282 293 283 292 296 305 300 290 280 281 277 283 254 244 252 263 261 253 261 257 249
190 195 206 210 210 215 202 205 204 200 206 215 226 248 341 305 298 305 312 312 308 275 269 285 282 288 284 285 288 290 293 267 277 267 262 256 257 262 263 249 257 260 259
195 197 199 199 215 226 205 206 210 185 196 237 213 232 239 256 277 291 297 298 301 290 289 284 282 277 282 282 281 283 285 276 266 271 276 273 265 257 259 262 256 259 260
202 208 203 202 211 216 217 205 198 193 194 232 246 278 256 297 308 285 305 310 315 309 295 289 298 292 276 282 280 281 277 277 277 268 272 270 269 259 255 258 261 258 259
209 213 205 207 210 217 222 213 190 180 200 240 257 269 271 300 345 324 321 321 319 319 312 301 296 303 299 302 290 298 297 295 285 289 294 273 280 277 268 257 257 256 257
212 215 214 216 216 217 216 200 202 213 224 236 237 261 292 314 324 315 314 312 313 314 316 314 311 305 302 302 298 293 281 281 288 280 270 277 276 272 271 264 259 253 255
210 219 221 216 217 213 216 192 197 206 214 208 290 235 264 296 316 301 302 300 301 303 304 306 307 304 301 300 301 294 288 284 271 287 283 280 279 254 271 288 268 265 252
209 217 223 219 218 215 212 203 204 215 235 245 219 203 232 253 279 281 302 294 289 295 299 302 302 299 294 292 295 297 294 288 285 280 282 293 284 281 278 265 290 258 252
210 215 220 223 221 217 206 202 209 209 208 222 233 244 276 300 304 305 300 292 294 297 300 302 301 297 297 298 297 297 297 294 288 284 282 283 289 286 284 282 256 249 248